Вернуться в каталог

SL-16 DEB

АктивенLEO
NORAD 39302·DEBRIS·🇷🇺 Russia

Запущен Dec 25, 1992 с Baikonur Cosmodrome

Loading…

Ближайшие Пролёты (ближайшие 24 часа)

TLE

УстаревающийSource: Space-Track

Эпоха: Sep 11, 2026, 12:30 UTC

1 39302U 92093JT  26254.52135863  .00003007  00000-0  10480-2 0  9997
2 39302  70.9815 163.2217 0109168 176.1340 359.2465 14.32838301670648

Отслеживайте SL-16 DEB в реальном времени с AllMySat

Download on the App Store